Location: Foligno
(42.9600°N, 12.7050°E)
Time: 05:44:51
(UTC+01:00)

ISS - Pass Details

Date: 23 February 2020
Orbit: 415 x 423 km, 51.6° (Epoch: 27 February)

Event Time Altitude Azimuth Distance (km) Brightness Sun altitude
Exits shadow 05:54:53 - 224° (SW) 1,533 -1.3 -11.9°
Reaches altitude 10° 05:54:59 10° 224° (SW) 1,493 -1.3 -11.9°
Maximum altitude 05:58:17 62° 143° (SE) 477 -3.3 -11.2°
Drops below altitude 10° 06:01:38 10° 62° (ENE) 1,506 0.0 -10.6°
Sets 06:03:45 0° 59° (ENE) 2,374 1.1 -10.3°
